Flag for United Kingdom Weather past 2 weeks in Ely, England, United Kingdom

Now
59 °F

Fog.


Feels Like: 58 °F
Forecast: 57 / 74 °F
Wind: 6 mph from East

Location: Mildenhall Royal Air Force Base

Current Time: Sep 18, 2014 at 9:06:45 AM

Latest Report: Sep 18, 2014 at 7:56 AM


Visibility: 0 mi

Pressure: 29.85 "Hg

Humidity: 100%

Dew point: 59 °F

Location of ElyLocation

Historic Weather in Ely — Graph

°F

Ely temperature yesterday

Maximum temperature yesterday: 67 °F (at 3:58 PM)
Minimum temperature yesterday: 60 °F (at 6:58 AM)
Average temperature yesterday: 63 °F

Past Weeks' High & Low Weather Summary

 TemperatureHumidityPressure
High74 °F (Sep 16, 3:58 PM)100% (Sep 3, 7:58 AM)30.36 "Hg (Sep 3, 7:58 AM)
Low41 °F (Sep 8, 6:52 AM)50% (Sep 3, 5:58 PM)29.84 "Hg (Sep 18, 4:58 AM)
Average60 °F89%30.10 "Hg
* Reported Sep 3 7:58 AM — Sep 18 7:56 AM, Ely, Weather by CustomWeather, © 2014

Note: Actual official high and low records may vary slightly from our data, if they occured in-between our weather recording intervals... More about our weather records

Advertising

Ely weather history for previous 24 hours

 ConditionsComfort  
Time TempWeatherWind HumidityBarometerVisibility
7:56 AM
Sep 18
59 °FFog.6 mph100%29.85 "Hg0 mi
6:58 AM58 °FFog.6 mph100%29.85 "Hg0 mi
5:58 AM59 °FFog.6 mph100%29.84 "Hg1 mi
4:58 AM60 °FFog.8 mph100%29.84 "Hg1 mi
3:58 AM60 °FFog.6 mph100%29.85 "Hg1 mi
3:03 AM59 °FFog.3 mph100%29.85 "Hg1 mi
2:58 AM60 °FFog.5 mph100%29.86 "Hg1 mi
2:03 AM59 °FFog.3 mph100%29.86 "Hg2 mi
1:58 AM59 °FFog.5 mph100%29.87 "Hg2 mi
12:58 AM59 °FFog.6 mph100%29.88 "Hg3 mi
12:01 AM59 °FFog.5 mph100%29.87 "Hg4 mi
10:58 PM
Sep 17
61 °FFog.6 mph100%29.89 "HgN/A
9:58 PM62 °FOvercast.6 mph100%29.89 "HgN/A
8:58 PM61 °FFog.5 mph100%29.89 "HgN/A
7:58 PM60 °FSunny.6 mph100%29.89 "HgN/A
6:58 PM63 °FSunny.6 mph100%29.88 "HgN/A
5:58 PM66 °FSunny.7 mph100%29.88 "HgN/A
4:58 PM67 °FSunny.8 mph100%29.88 "HgN/A
3:58 PM67 °FScattered clouds.6 mph100%29.89 "HgN/A
2:58 PM67 °FPartly sunny.5 mph100%29.90 "HgN/A
2:03 PM66 °FPartly sunny.8 mph100%29.89 "HgN/A
1:58 PM66 °FOvercast.6 mph100%29.90 "HgN/A
12:58 PM65 °FOvercast.8 mph100%29.91 "HgN/A
11:58 AM64 °FOvercast.7 mph100%29.93 "HgN/A
10:58 AM63 °FOvercast.6 mph100%29.93 "HgN/A
9:58 AM62 °FOvercast.6 mph100%29.94 "HgN/A
Weather by CustomWeather, © 2014

See weather overviewHow to use our weather pages